STARLINK-4784 (53839 NORAD) Tracking and Keplerian Element Data

This shows tracking and keplerian element data for the satellite.

Feedback or suggestion? Click here.




ElementValue
Catalog53839
NameSTARLINK-4784
Epoch Orbit1053
Epoch Day325.33334491
Epoch Year2022
RAAN305.6562
Inclination53.2172
Eccentricity9.77E-05
Argument of Perigee82.9
Mean Anonmoly295.9535
Mean Motion15.66037983
Decay Rate-0.01134568
L11 53839U 22114X 22325.33334491 -.01134568 00000+0 -12009-1 0 9994
L22 53839 53.2172 305.6562 0000977 82.9000 295.9535 15.66037983 10534



Live tracking and technical data element details for STARLINK-4784 (NORAD 53839). STARLINK-4784 can be tracked NOW for your location showing map with azimuth and elevation plus other details from your city location.







IsCatalogInMostPopularTable: catalog: 53839, numindb: -1

Insert: records affected: 1


GetName: 53839 STARLINK-4784

Hit Count: inserted at: Mon, 28 Nov 2022 05:53:08 GMT